Kearney, NE

7:51 AM CST on November 23, 2017 (GMT -0600)
Kearney Municipal

Weather History for KEAR - April, 2013

Change the Weather History Date:

Thursday, April 25, 2013

  Actual Average Record
Temperature  
Mean Temperature 51 °F 52 °F  
Max Temperature 72 °F 65 °F 92 °F (1989)
Min Temperature 30 °F 39 °F 24 °F (2002)
Degree Days  
Heating Degree Days 14 13  
Month to date heating degree days 435  
Cooling Degree Days 0 0  
Month to date cooling degree days 0  
Moisture  
Dew Point 30 °F    
Average Humidity 53    
Maximum Humidity 85    
Minimum Humidity 20    
Precipitation  
Precipitation 0.00 in - 2.14 in (1923)
Sea Level Pressure  
Sea Level Pressure 30.10 in    
Wind  
Wind Speed 17 mph (SSW)    
Max Wind Speed 35 mph    
Max Gust Speed 41 mph    
Visibility 10 miles    
Events      
T = Trace of Precipitation, MM = Missing Value Source: NWS Daily Summary

Daily Weather History Graph

Daily Weather History Graph

Search for Another Location

Airport or City:

Trip Planner

Search our weather history database for the weather conditions in past years. The results will help you decide how hot, cold, wet, or windy it might be!

Date:

Astronomy

Apr. 25, 2013 Rise Set
Actual Time 6:42 AM CDT 8:26 PM CDT
Civil Twilight 6:13 AM CDT 8:55 PM CDT
Nautical Twilight 5:37 AM CDT 9:31 PM CDT
Astronomical Twilight 4:59 AM CDT 10:09 PM CDT
Moon 8:41 PM CDT (4/25) 6:26 AM CDT (4/25)
Length of Visible Light 14h 42m
Length of Day
13h 44m
Full, 100% of the Moon is Illuminated
Apr 25
Full
Apr 25
Full
May 2
Last Quarter
May 9
New
May 17
First Quarter

Hourly Weather History & Observations

Time (CDT) Temp. Windchill Dew Point Humidity Pressure Visibility Wind Dir Wind Speed Gust Speed Precip Events Conditions
12:15 AM 35.6 °F 30.7 °F 28.4 °F 75% 30.23 in 10.0 mi SW 5.8 mph - N/A   Clear
12:35 AM 35.6 °F 31.7 °F 28.4 °F 75% 30.23 in 10.0 mi SW 4.6 mph - N/A   Clear
12:55 AM 33.8 °F 28.6 °F 28.4 °F 81% 30.23 in 10.0 mi SW 5.8 mph - N/A   Clear
1:15 AM 35.6 °F 30.7 °F 30.2 °F 81% 30.23 in 10.0 mi SW 5.8 mph - N/A   Clear
1:35 AM 33.8 °F 27.7 °F 28.4 °F 81% 30.22 in 10.0 mi SW 6.9 mph - N/A   Clear
1:55 AM 33.8 °F 27.7 °F 28.4 °F 81% 30.22 in 10.0 mi SW 6.9 mph - N/A   Clear
2:15 AM 35.6 °F 30.7 °F 28.4 °F 75% 30.22 in 10.0 mi WSW 5.8 mph - N/A   Clear
2:35 AM 33.8 °F 28.6 °F 28.4 °F 81% 30.21 in 10.0 mi SW 5.8 mph - N/A   Clear
2:55 AM 35.6 °F 30.7 °F 28.4 °F 75% 30.21 in 10.0 mi WSW 5.8 mph - N/A   Clear
3:15 AM 33.8 °F 28.6 °F 28.4 °F 81% 30.20 in 10.0 mi SW 5.8 mph - N/A   Clear
3:35 AM 33.8 °F 26.4 °F 28.4 °F 81% 30.21 in 10.0 mi SW 9.2 mph - N/A   Clear
3:55 AM 33.8 °F 25.8 °F 28.4 °F 81% 30.23 in 10.0 mi SW 10.4 mph - N/A   Clear
4:15 AM 33.8 °F 27.7 °F 28.4 °F 81% 30.22 in 10.0 mi SW 6.9 mph - N/A   Clear
4:35 AM 33.8 °F 27.7 °F 28.4 °F 81% 30.23 in 10.0 mi SW 6.9 mph - N/A   Clear
4:55 AM 32.0 °F 24.8 °F 28.4 °F 87% 30.22 in 10.0 mi SSW 8.1 mph - N/A   Clear
5:15 AM 30.2 °F 25.4 °F 26.6 °F 86% 30.22 in 10.0 mi SW 4.6 mph - N/A   Clear
5:35 AM 32.0 °F 26.4 °F 28.4 °F 87% 30.22 in 10.0 mi SW 5.8 mph - N/A   Clear
5:55 AM 33.8 °F 26.4 °F 28.4 °F 81% 30.21 in 10.0 mi SW 9.2 mph - N/A   Clear
6:15 AM 33.8 °F 26.4 °F 28.4 °F 81% 30.22 in 10.0 mi SSW 9.2 mph - N/A   Clear
6:35 AM 33.8 °F 24.8 °F 28.4 °F 81% 30.22 in 10.0 mi SSW 12.7 mph - N/A   Clear
6:55 AM 33.8 °F 25.8 °F 28.4 °F 81% 30.21 in 10.0 mi SSW 10.4 mph - N/A   Clear
7:15 AM 33.8 °F 25.3 °F 28.4 °F 81% 30.22 in 10.0 mi SSW 11.5 mph - N/A   Clear
7:35 AM 35.6 °F 27.5 °F 30.2 °F 81% 30.22 in 10.0 mi SSW 11.5 mph - N/A   Clear
7:55 AM 35.6 °F 27.5 °F 30.2 °F 81% 30.22 in 10.0 mi SSW 11.5 mph - N/A   Clear
8:15 AM 37.4 °F 30.3 °F 32.0 °F 81% 30.21 in 10.0 mi SSW 10.4 mph - N/A   Clear
8:35 AM 39.2 °F 33.0 °F 33.8 °F 81% 30.21 in 10.0 mi SSW 9.2 mph - N/A   Clear
8:55 AM 42.8 °F 37.5 °F 33.8 °F 70% 30.21 in 10.0 mi South 9.2 mph - N/A   Clear
9:15 AM 44.6 °F 37.4 °F 33.8 °F 66% 30.20 in 10.0 mi South 16.1 mph - N/A   Clear
9:35 AM 48.2 °F - 35.6 °F 62% 30.19 in 10.0 mi South 17.3 mph - N/A   Clear
9:55 AM 50.0 °F - 33.8 °F 54% 30.18 in 10.0 mi South 15.0 mph - N/A   Clear
10:15 AM 51.8 °F - 33.8 °F 50% 30.18 in 10.0 mi South 17.3 mph - N/A   Clear
10:35 AM 53.6 °F - 33.8 °F 47% 30.17 in 10.0 mi South 21.9 mph - N/A   Clear
10:55 AM 53.6 °F - 32.0 °F 44% 30.17 in 10.0 mi South 20.7 mph 25.3 mph N/A   Clear
11:15 AM 55.4 °F - 33.8 °F 44% 30.16 in 10.0 mi SSE 20.7 mph - N/A   Clear
11:35 AM 57.2 °F - 32.0 °F 38% 30.15 in 10.0 mi South 23.0 mph 27.6 mph N/A   Clear
11:55 AM 59.0 °F - 32.0 °F 36% 30.14 in 10.0 mi South 21.9 mph 26.5 mph N/A   Clear
12:15 PM 60.8 °F - 30.2 °F 31% 30.13 in 10.0 mi South 19.6 mph - N/A   Clear
12:35 PM 62.6 °F - 33.8 °F 34% 30.12 in 10.0 mi South 18.4 mph 28.8 mph N/A   Clear
12:55 PM 64.4 °F - 33.8 °F 32% 30.11 in 10.0 mi South 21.9 mph 27.6 mph N/A   Clear
1:15 PM 64.4 °F - 33.8 °F 32% 30.10 in 10.0 mi SSW 24.2 mph 28.8 mph N/A   Clear
1:35 PM 66.2 °F - 33.8 °F 30% 30.07 in 10.0 mi SSW 28.8 mph 33.4 mph N/A   Clear
1:55 PM 68.0 °F - 33.8 °F 28% 30.06 in 10.0 mi South 20.7 mph 32.2 mph N/A   Clear
2:15 PM 69.8 °F - 30.2 °F 23% 30.04 in 10.0 mi SSW 28.8 mph 36.8 mph N/A   Clear
2:35 PM 69.8 °F - 32.0 °F 25% 30.03 in 10.0 mi SSW 29.9 mph 39.1 mph N/A   Clear
2:55 PM 69.8 °F - 30.2 °F 23% 30.02 in 10.0 mi South 28.8 mph 36.8 mph N/A   Clear
3:15 PM 71.6 °F - 32.0 °F 23% 30.01 in 10.0 mi SSW 33.4 mph 39.1 mph N/A   Clear
3:35 PM 71.6 °F - 30.2 °F 22% 30.00 in 10.0 mi SSW 27.6 mph 34.5 mph N/A   Clear
3:55 PM 71.6 °F - 30.2 °F 22% 29.99 in 10.0 mi South 29.9 mph 36.8 mph N/A   Clear
4:15 PM 71.6 °F - 28.4 °F 20% 29.98 in 10.0 mi SSW 25.3 mph 36.8 mph N/A   Clear
4:35 PM 71.6 °F - 30.2 °F 22% 29.97 in 10.0 mi SSW 34.5 mph 40.3 mph N/A   Clear
4:55 PM 71.6 °F - 28.4 °F 20% 29.96 in 10.0 mi SSW 28.8 mph 36.8 mph N/A   Clear
5:15 PM 71.6 °F - 26.6 °F 19% 29.96 in 10.0 mi SSW 33.4 mph 40.3 mph N/A   Clear
5:35 PM 71.6 °F - 24.8 °F 17% 29.95 in 10.0 mi SSW 32.2 mph 40.3 mph N/A   Clear
5:55 PM 69.8 °F - 26.6 °F 20% 29.95 in 10.0 mi South 29.9 mph 36.8 mph N/A   Clear
6:15 PM 69.8 °F - 26.6 °F 20% 29.95 in 10.0 mi South 27.6 mph 36.8 mph N/A   Clear
6:35 PM 68.0 °F - 26.6 °F 21% 29.95 in 10.0 mi South 26.5 mph 34.5 mph N/A   Clear
6:55 PM 66.2 °F - 26.6 °F 23% 29.94 in 10.0 mi South 27.6 mph 35.7 mph N/A   Clear
7:15 PM 66.2 °F - 26.6 °F 23% 29.94 in 10.0 mi South 26.5 mph 41.4 mph N/A   Clear
7:35 PM 64.4 °F - 26.6 °F 24% 29.94 in 10.0 mi South 26.5 mph 34.5 mph N/A   Clear
7:55 PM 60.8 °F - 28.4 °F 29% 29.95 in 10.0 mi South 18.4 mph - N/A   Clear
8:15 PM 60.8 °F - 26.6 °F 27% 29.95 in 10.0 mi South 19.6 mph - N/A   Clear
8:35 PM 59.0 °F - 26.6 °F 29% 29.95 in 10.0 mi South 20.7 mph 27.6 mph N/A   Clear
8:55 PM 57.2 °F - 26.6 °F 31% 29.96 in 10.0 mi South 18.4 mph 23.0 mph N/A   Clear
9:15 PM 55.4 °F - 28.4 °F 36% 29.97 in 10.0 mi SSE 15.0 mph - N/A   Clear
9:35 PM 55.4 °F - 28.4 °F 36% 29.98 in 10.0 mi SSE 16.1 mph - N/A   Clear
9:55 PM 55.4 °F - 28.4 °F 36% 29.99 in 10.0 mi South 19.6 mph 24.2 mph N/A   Clear
10:15 PM 53.6 °F - 28.4 °F 38% 29.99 in 10.0 mi SSE 20.7 mph 25.3 mph N/A   Clear
10:35 PM 53.6 °F - 30.2 °F 41% 29.99 in 10.0 mi South 19.6 mph 24.2 mph N/A   Clear
10:55 PM 51.8 °F - 32.0 °F 47% 30.00 in 10.0 mi South 19.6 mph 26.5 mph N/A   Clear
11:15 PM 51.8 °F - 32.0 °F 47% 30.00 in 10.0 mi South 18.4 mph 28.8 mph N/A   Clear
11:35 PM 51.8 °F - 33.8 °F 50% 30.00 in 10.0 mi South 18.4 mph - N/A   Clear
11:55 PM 50.0 °F - 33.8 °F 54% 30.00 in 10.0 mi South 17.3 mph 21.9 mph N/A   Clear